EW9536 Weather Reports


time (UTC)temp
C
wind
direction
speed
KPH
gust
KPH
rain 1hr
cm
rain 24hr
cm
rain mn
cm
humidity
%
barometer
mb
20260506174517 21 270 6.4 16.1 0.00 0.03 0.03 43 1010.2
20260506173537 20 270 8.0 17.7 0.00 0.03 0.03 43 1010.1
20260506172517 21 270 8.0 14.5 0.00 0.03 0.03 43 1010.0
20260506171517 20 293 8.0 16.1 0.00 0.03 0.03 44 1010.0
20260506170517 20 293 9.7 17.7 0.00 0.03 0.03 44 1010.1
20260506165617 21 270 9.7 19.3 0.00 0.03 0.03 43 1010.0
20260506164517 21 293 8.0 17.7 0.00 0.03 0.03 43 1009.9
20260506163518 21 248 9.7 19.3 0.00 0.03 0.03 44 1010.0
20260506162517 21 270 11.3 20.9 0.00 0.03 0.03 42 1010.0
20260506161517 21 270 6.4 16.1 0.00 0.03 0.03 43 1009.9
20260506160517 21 270 9.7 19.3 0.00 0.03 0.03 41 1010.0
20260506155517 21 248 9.7 19.3 0.00 0.03 0.03 44 1010.0
20260506154517 21 293 8.0 19.3 0.00 0.03 0.03 44 1010.1
20260506153557 20 270 11.3 17.7 0.00 0.03 0.03 43 1010.1
20260506152517 20 270 9.7 22.5 0.00 0.03 0.03 45 1010.1
20260506151517 20 270 12.9 24.1 0.00 0.03 0.03 44 1010.2
20260506150517 21 293 16.1 29.0 0.00 0.03 0.03 44 1010.3
20260506145537 21 270 11.3 19.3 0.00 0.03 0.03 44 1010.4
20260506144517 21 270 8.0 19.3 0.00 0.03 0.03 43 1010.5
20260506143517 20 270 9.7 20.9 0.00 0.03 0.03 46 1010.6
20260506142517 20 270 6.4 16.1 0.00 0.03 0.03 47 1010.5
20260506141537 20 293 12.9 24.1 0.00 0.03 0.03 44 1010.7
20260506140516 20 293 11.3 20.9 0.00 0.03 0.03 45 1010.7
20260506135516 20 270 6.4 12.9 0.00 0.03 0.03 46 1010.8
20260506134517 20 248 9.7 17.7 0.00 0.03 0.03 45 1010.9
20260506133516 20 315 8.0 16.1 0.00 0.03 0.03 47 1011.1
20260506132517 20 293 8.0 22.5 0.00 0.03 0.03 46 1011.3
20260506131517 20 315 8.0 17.7 0.00 0.03 0.03 46 1011.3
20260506130516 20 270 6.4 19.3 0.00 0.03 0.03 47 1011.3
20260506125517 20 270 9.7 17.7 0.00 0.03 0.03 49 1011.5
20260506124517 19 315 11.3 25.7 0.00 0.03 0.03 50 1011.5
20260506123516 20 248 12.9 27.4 0.00 0.03 0.03 48 1011.6
20260506122517 19 293 11.3 20.9 0.00 0.03 0.03 49 1011.6
20260506121517 20 270 8.0 17.7 0.00 0.03 0.03 48 1011.7
20260506120517 19 270 8.0 20.9 0.00 0.03 0.03 46 1011.6
20260506115516 19 248 11.3 19.3 0.00 0.03 0.03 44 1011.7
20260506114516 18 293 11.3 25.7 0.00 0.03 0.03 50 1011.6
20260506113517 18 270 8.0 19.3 0.00 0.03 0.03 50 1011.7
20260506112516 18 338 9.7 19.3 0.00 0.03 0.03 50 1011.9
20260506111516 18 338 8.0 17.7 0.00 0.03 0.03 52 1011.9
20260506105516 18 293 9.7 17.7 0.00 0.03 0.03 54 1012.0
20260506104516 18 293 9.7 17.7 0.00 0.03 0.03 52 1012.1
20260506103517 18 293 11.3 20.9 0.00 0.03 0.03 55 1012.1
20260506102538 17 338 8.0 17.7 0.00 0.03 0.03 56 1012.2
20260506101518 17 293 8.0 19.3 0.00 0.03 0.03 55 1012.2
20260506100518 17 293 11.3 19.3 0.00 0.03 0.03 55 1012.2
20260506095538 16 293 6.4 14.5 0.00 0.03 0.03 56 1012.2
20260506094518 16 270 9.7 17.7 0.00 0.03 0.03 57 1012.4
20260506093518 16 270 4.8 17.7 0.00 0.03 0.03 58 1012.5
20260506092518 16 293 9.7 17.7 0.00 0.03 0.03 60 1012.5
20260506091518 15 293 11.3 24.1 0.00 0.03 0.03 61 1012.4
20260506090518 15 315 11.3 25.7 0.00 0.03 0.03 63 1012.4
20260506085518 15 293 14.5 22.5 0.00 0.03 0.03 63 1012.3
20260506084516 15 293 14.5 25.7 0.00 0.03 0.03 63 1012.2
20260506083539 15 293 12.9 29.0 0.00 0.03 0.03 65 1012.1
20260506082518 14 315 16.1 27.4 0.00 0.03 0.03 66 1012.0
20260506081518 14 293 12.9 27.4 0.00 0.03 0.03 67 1012.0
20260506080518 13 315 12.9 25.7 0.00 0.03 0.03 68 1012.0
20260506073518 12 315 9.7 16.1 0.00 0.03 0.03 73 1012.0
20260506072518 12 293 9.7 17.7 0.00 0.03 0.03 74 1012.0
20260506071518 12 293 9.7 22.5 0.00 0.03 0.03 75 1012.1
20260506070538 11 315 12.9 22.5 0.00 0.03 0.03 76 1012.1
20260506061518 10 45 3.2 6.4 0.00 0.03 0.03 83 1011.9
20260506060517 9 225 1.6 3.2 0.00 0.03 0.03 88 1011.8
20260506050517 7 203 1.6 3.2 0.00 0.03 0.03 90 1011.1
20260506044518 7 0.0 1.6 0.00 0.03 0.03 91 1010.9
20260506043518 6 248 1.6 3.2 0.00 0.03 0.03 91 1010.8
20260506042518 6 248 1.6 3.2 0.00 0.03 0.03 91 1010.7
20260506041517 6 270 3.2 8.0 0.00 0.03 0.03 92 1010.5
20260506040517 6 293 1.6 4.8 0.00 0.03 0.03 92 1010.5
20260506035518 6 248 1.6 3.2 0.00 0.03 0.03 91 1010.4
20260506034538 6 293 3.2 4.8 0.00 0.03 0.03 91 1010.5
20260506033518 6 293 4.8 6.4 0.00 0.03 0.03 92 1010.6
20260506032517 7 315 1.6 4.8 0.00 0.03 0.03 92 1010.5
20260506031518 7 203 1.6 3.2 0.00 0.03 0.03 92 1010.6
20260506030538 7 315 3.2 6.4 0.00 0.03 0.03 94 1010.6
20260506025517 6 315 3.2 6.4 0.00 0.03 0.03 93 1010.5
20260506024537 6 225 1.6 6.4 0.00 0.03 0.03 93 1010.6
20260506023517 6 180 1.6 3.2 0.03 0.03 0.03 92 1010.7
20260506022517 7 270 1.6 3.2 0.03 0.05 0.03 92 1010.7
20260506021517 7 0.0 3.2 0.03 0.05 0.03 92 1010.7
20260506020518 7 293 1.6 3.2 0.03 0.05 0.03 93 1010.6
20260506015538 7 0.0 3.2 0.03 0.05 0.03 93 1010.6
20260506014517 7 180 3.2 6.4 0.03 0.05 0.03 92 1010.7
20260506013517 7 203 3.2 6.4 0.00 0.03 0.00 91 1010.6
20260506012518 7 315 1.6 3.2 0.00 0.03 0.00 92 1010.5
20260506011517 7 270 3.2 6.4 0.00 0.03 0.00 92 1010.6
20260506010517 7 248 1.6 4.8 0.00 0.03 0.00 92 1010.7
20260506005517 8 0.0 1.6 0.00 0.03 0.00 90 1010.9
20260506004517 8 293 1.6 3.2 0.00 0.03 0.00 91 1011.0
20260506003517 8 293 1.6 3.2 0.00 0.03 0.00 92 1010.9
20260506002537 8 0.0 3.2 0.00 0.03 0.00 92 1010.9
20260506001517 8 0.0 1.6 0.00 0.03 0.00 91 1011.1
20260506000517 8 338 1.6 3.2 0.00 0.03 0.00 92 1011.2
20260505235517 9 293 1.6 3.2 0.00 0.03 0.03 92 1011.2
20260505234518 9 225 1.6 3.2 0.00 0.03 0.03 91 1011.2
20260505233518 9 293 3.2 6.4 0.00 0.03 0.03 92 1011.3
20260505232518 10 248 1.6 3.2 0.00 0.03 0.03 91 1011.2
20260505231518 10 225 1.6 4.8 0.00 0.03 0.03 90 1011.0
20260505230518 10 293 1.6 4.8 0.00 0.03 0.03 91 1011.0
20260505225517 10 270 4.8 9.7 0.00 0.03 0.03 90 1011.0
20260505224537 10 180 1.6 4.8 0.00 0.03 0.03 90 1010.9
20260505223518 11 0.0 3.2 0.00 0.03 0.03 89 1011.1
20260505222517 11 180 1.6 3.2 0.00 0.03 0.03 90 1011.2
20260505221517 11 135 3.2 4.8 0.00 0.03 0.03 89 1011.1
20260505220518 11 135 1.6 3.2 0.00 0.03 0.03 89 1011.4
20260505215518 11 0.0 3.2 0.00 0.03 0.03 89 1011.7
20260505214538 11 248 3.2 4.8 0.00 0.03 0.03 89 1011.6
20260505213518 11 293 3.2 4.8 0.00 0.03 0.03 89 1011.6
20260505212517 11 270 1.6 3.2 0.00 0.03 0.03 88 1011.7
20260505211518 11 270 3.2 6.4 0.00 0.03 0.03 88 1011.7
20260505210537 11 293 1.6 4.8 0.00 0.03 0.03 88 1011.5
20260505205537 12 0.0 0.0 0.00 0.03 0.03 87 1011.5
20260505204517 12 0 1.6 4.8 0.00 0.03 0.03 87 1011.4
20260505203517 12 225 3.2 8.0 0.00 0.03 0.03 87 1011.2
20260505202517 12 0.0 1.6 0.00 0.03 0.03 87 1011.0
20260505201517 12 338 1.6 4.8 0.00 0.03 0.03 87 1011.2
20260505200537 12 203 1.6 6.4 0.00 0.03 0.03 87 1010.8
20260505195517 12 203 1.6 4.8 0.00 0.03 0.03 87 1010.5
20260505194517 12 0.0 1.6 0.00 0.03 0.03 85 1010.4
20260505193517 13 0.0 4.8 0.00 0.03 0.03 85 1010.3
20260505192517 13 248 1.6 4.8 0.00 0.03 0.03 83 1010.1
20260505191517 13 45 1.6 3.2 0.00 0.05 0.03 81 1009.9
20260505190517 13 45 3.2 4.8 0.00 0.05 0.03 80 1009.7
20260505185517 13 45 4.8 8.0 0.00 0.13 0.03 81 1009.8
20260505184517 13 45 6.4 14.5 0.00 0.20 0.03 82 1009.5
20260505183517 13 45 4.8 9.7 0.00 0.30 0.03 84 1009.4
20260505182517 13 68 4.8 8.0 0.00 0.43 0.03 84 1009.4
20260505181516 13 90 4.8 11.3 0.00 0.43 0.03 83 1009.5
20260505180517 13 113 4.8 9.7 0.00 0.43 0.03 83 1009.6
20260505175538 14 68 3.2 6.4 0.00 0.43 0.03 81 1009.6